Photometre #117[Polarized_P] IAOCA-KRSU AOT

File : 20221124_117.hum

24/11/2022,02:45:14,TEMP=3.1,BA=5.64,STAT.A
24/11/2022,02:49:36,TEMP=3.3,BA=5.64,STAT.A
24/11/2022,02:54:47,TEMP=3.6,BA=5.64,STAT.A
24/11/2022,03:01:00,TEMP=3.9,BA=5.64,STAT.A
24/11/2022,03:08:39,TEMP=4.1,BA=5.64,STAT.A
24/11/2022,03:18:17,TEMP=4.4,BA=5.64,STAT.A
24/11/2022,03:30:51,TEMP=4.6,BA=5.64,STAT.B
24/11/2022,03:32:50,TEMP=4.7,BA=5.64,STAT.F
24/11/2022,03:47:50,TEMP=5.1,BA=5.64,STAT.D
24/11/2022,04:02:52,TEMP=5.7,BA=5.64,STAT.D
24/11/2022,04:17:52,TEMP=6.6,BA=5.64,STAT.D
24/11/2022,04:32:52,TEMP=7.6,BA=5.64,STAT.F
24/11/2022,04:59:19,TEMP=8.7,BA=5.64,STAT.D
24/11/2022,05:02:51,TEMP=8.6,BA=5.64,STAT.D
24/11/2022,05:17:53,TEMP=9.0,BA=5.64,STAT.D
24/11/2022,05:32:51,TEMP=9.0,BA=5.64,STAT.F
24/11/2022,05:48:00,TEMP=8.0,BA=5.64,STAT.D
24/11/2022,06:02:51,TEMP=7.3,BA=5.64,STAT.D
24/11/2022,06:17:58,TEMP=8.1,BA=5.64,STAT.D
24/11/2022,06:32:52,TEMP=9.6,BA=5.64,STAT.F
24/11/2022,07:00:53,TEMP=11.7,BA=5.64,STAT.D
24/11/2022,07:03:51,TEMP=11.7,BA=5.64,STAT.D
24/11/2022,07:17:53,TEMP=11.7,BA=5.64,STAT.D
24/11/2022,07:32:53,TEMP=11.8,BA=5.64,STAT.F
24/11/2022,07:48:07,TEMP=10.9,BA=5.64,STAT.D
24/11/2022,08:02:51,TEMP=11.2,BA=5.64,STAT.D
24/11/2022,08:17:54,TEMP=11.5,BA=5.64,STAT.D
24/11/2022,08:32:57,TEMP=11.6,BA=5.64,STAT.F
24/11/2022,08:49:08,TEMP=11.4,BA=5.64,STAT.D
24/11/2022,09:02:52,TEMP=12.4,BA=5.64,STAT.D
24/11/2022,09:17:51,TEMP=12.0,BA=5.64,STAT.D
24/11/2022,09:32:51,TEMP=11.1,BA=5.64,STAT.F
24/11/2022,09:41:38,TEMP=9.6,BA=5.64,STAT.B
24/11/2022,09:47:23,TEMP=8.6,BA=5.64,STAT.A
24/11/2022,09:57:01,TEMP=7.2,BA=5.64,STAT.A
24/11/2022,10:04:40,TEMP=6.5,BA=5.64,STAT.A
24/11/2022,10:10:53,TEMP=6.1,BA=5.64,STAT.A
24/11/2022,10:16:04,TEMP=5.8,BA=5.64,STAT.A
24/11/2022,10:20:26,TEMP=5.6,BA=5.64,STAT.A